TimeCST,TemperatureF,Dew PointF,Humidity,Sea Level PressureIn,VisibilityMPH,Wind Direction,Wind SpeedMPH,Gust SpeedMPH,PrecipitationIn,Events,Conditions,WindDirDegrees,DateUTC
12:51 AM,53.6,50.0,88,30.00,5.0,NW,15.0,19.6,0.13,Rain,Light Rain,320,2013-02-19 06:51:00
12:56 AM,53.1,51.1,93,30.02,2.0,NW,12.7,-,0.23,Rain,Heavy Rain,320,2013-02-19 06:56:00
12:58 AM,53.6,51.8,94,30.00,1.5,NW,13.8,-,0.07,Rain,Heavy Rain,320,2013-02-19 06:58:00
1:09 AM,51.8,51.8,100,29.99,1.8,WNW,6.9,-,0.16,Rain,Heavy Rain,300,2013-02-19 07:09:00
1:16 AM,51.8,51.8,100,29.96,3.0,Calm,Calm,-,0.17,Rain,Rain,0,2013-02-19 07:16:00
1:24 AM,51.8,50.0,94,29.96,5.0,East,4.6,-,0.18,Rain,Light Rain,80,2013-02-19 07:24:00
1:51 AM,51.8,51.8,100,30.01,3.0,NNW,6.9,-,0.24,Rain,Rain,330,2013-02-19 07:51:00
1:56 AM,52.0,51.1,97,30.04,4.0,NNW,3.5,-,0.24,Rain,Light Rain,340,2013-02-19 07:56:00
2:02 AM,51.8,51.8,100,30.00,2.5,Calm,Calm,-,0.02,Rain,Rain,0,2013-02-19 08:02:00
2:12 AM,51.8,50.0,94,29.98,3.0,ESE,6.9,-,0.03,Rain,Light Rain,110,2013-02-19 08:12:00
2:56 AM,51.1,50.0,96,30.00,10.0,Calm,Calm,-,0.04,,Overcast,0,2013-02-19 08:56:00
3:07 AM,51.8,50.0,94,29.97,10.0,Calm,Calm,-,N/A,,Overcast,0,2013-02-19 09:07:00
3:56 AM,51.1,50.0,96,30.02,10.0,Calm,Calm,-,N/A,,Overcast,0,2013-02-19 09:56:00
4:27 AM,51.8,50.0,94,30.02,1.5,NNW,4.6,-,N/A,,Overcast,330,2013-02-19 10:27:00
4:30 AM,51.8,50.0,94,30.02,0.8,NNW,5.8,-,N/A,,Overcast,340,2013-02-19 10:30:00
4:56 AM,51.1,50.0,96,30.06,1.0,NNW,4.6,-,N/A,,Mist,330,2013-02-19 10:56:00
5:02 AM,51.8,50.0,94,30.03,2.5,NNW,4.6,-,N/A,,Overcast,330,2013-02-19 11:02:00
5:20 AM,51.8,50.0,94,30.04,3.0,NNW,4.6,-,N/A,,Overcast,330,2013-02-19 11:20:00
5:54 AM,51.8,50.0,94,30.06,6.0,WNW,6.9,-,N/A,,Overcast,300,2013-02-19 11:54:00
5:56 AM,51.1,50.0,96,30.09,7.0,NW,8.1,-,N/A,,Overcast,310,2013-02-19 11:56:00
6:01 AM,51.8,50.0,94,30.07,9.0,NW,8.1,-,N/A,,Overcast,310,2013-02-19 12:01:00
6:56 AM,45.0,39.9,82,30.16,10.0,NNW,13.8,24.2,N/A,,Mostly Cloudy,330,2013-02-19 12:56:00
7:05 AM,44.6,39.2,81,30.13,10.0,NNW,15.0,-,N/A,,Scattered Clouds,330,2013-02-19 13:05:00
7:56 AM,45.0,37.9,76,30.20,10.0,NNW,10.4,-,N/A,,Clear,340,2013-02-19 13:56:00
8:56 AM,48.0,39.0,71,30.22,10.0,NNW,11.5,-,N/A,,Scattered Clouds,340,2013-02-19 14:56:00
9:56 AM,50.0,37.9,63,30.25,10.0,NNW,9.2,-,N/A,,Scattered Clouds,330,2013-02-19 15:56:00
10:56 AM,53.1,33.1,47,30.26,10.0,NNW,13.8,-,N/A,,Clear,330,2013-02-19 16:56:00
11:56 AM,54.0,28.9,38,30.25,10.0,NW,10.4,-,N/A,,Clear,310,2013-02-19 17:56:00
12:56 PM,55.9,28.9,36,30.23,10.0,NW,12.7,19.6,N/A,,Partly Cloudy,310,2013-02-19 18:56:00
1:56 PM,57.0,27.0,32,30.22,10.0,NW,16.1,21.9,N/A,,Partly Cloudy,310,2013-02-19 19:56:00
2:56 PM,57.9,24.1,27,30.23,10.0,NW,13.8,24.2,N/A,,Partly Cloudy,320,2013-02-19 20:56:00
3:56 PM,57.9,24.1,27,30.23,10.0,WNW,11.5,19.6,N/A,,Clear,300,2013-02-19 21:56:00
4:56 PM,55.9,21.9,27,30.24,10.0,NNW,12.7,-,N/A,,Clear,330,2013-02-19 22:56:00
6:56 PM,46.0,25.0,44,30.26,10.0,NNW,4.6,-,N/A,,Clear,330,2013-02-20 00:56:00
7:56 PM,43.0,27.0,53,30.27,10.0,NNW,3.5,-,N/A,,Clear,340,2013-02-20 01:56:00
8:56 PM,41.0,25.0,53,30.29,10.0,NW,4.6,-,N/A,,Clear,320,2013-02-20 02:56:00
9:56 PM,39.0,24.1,55,30.32,10.0,NNW,5.8,-,N/A,,Clear,330,2013-02-20 03:56:00
10:56 PM,37.0,26.1,65,30.32,10.0,NW,4.6,-,N/A,,Clear,320,2013-02-20 04:56:00
11:56 PM,34.0,26.1,73,30.30,10.0,NW,4.6,-,N/A,,Clear,320,2013-02-20 05:56:00